Location: Paris
(48.6709°N, 2.3750°E)
Time: 06:45:42
(UTC+02:00)

Gurwin Techsat 1B - Pass Details

Date: 02 July 2022
Orbit: 812 x 813 km, 98.8° (Epoch: 16 August)

Event Time Altitude Azimuth Distance (km) Brightness Sun altitude
Rises 03:36:23 0° 23° (NNE) 3,347 13.8 -14.8°
Reaches altitude 10° 03:39:03 10° 34° (NE) 2,411 12.4 -14.6°
Maximum altitude 03:43:40 30° 95° (E) 1,441 10.1 -14.2°
Drops below altitude 10° 03:48:16 10° 155° (SSE) 2,395 10.7 -13.9°
Enters shadow 03:49:00 - 159° (SSE) 2,646 10.9 -13.9°
